TimeMST,TemperatureF,Dew PointF,Humidity,Sea Level PressureIn,VisibilityMPH,Wind Direction,Wind SpeedMPH,Gust SpeedMPH,PrecipitationIn,Events,Conditions,WindDirDegrees,DateUTC
12:53 AM,26.1,16.0,66,29.87,10.0,ESE,5.8,-,N/A,,Clear,110,2012-02-26 07:53:00
1:53 AM,24.1,14.0,65,29.89,10.0,Calm,Calm,-,N/A,,Clear,0,2012-02-26 08:53:00
2:53 AM,30.9,10.0,42,29.89,10.0,North,12.7,-,N/A,,Clear,360,2012-02-26 09:53:00
3:53 AM,27.0,10.0,49,29.92,10.0,Calm,Calm,-,N/A,,Clear,0,2012-02-26 10:53:00
4:53 AM,25.0,10.0,53,29.94,10.0,NE,4.6,-,N/A,,Clear,50,2012-02-26 11:53:00
5:53 AM,21.0,10.9,65,30.00,10.0,Calm,Calm,-,N/A,,Clear,0,2012-02-26 12:53:00
6:53 AM,21.9,9.0,58,30.06,10.0,Calm,Calm,-,N/A,,Clear,0,2012-02-26 13:53:00
7:53 AM,28.0,10.0,47,30.10,10.0,Calm,Calm,-,N/A,,Clear,0,2012-02-26 14:53:00
8:53 AM,32.0,8.1,37,30.09,10.0,Variable,3.5,-,N/A,,Clear,0,2012-02-26 15:53:00
9:53 AM,37.9,7.0,28,30.08,10.0,Variable,5.8,-,N/A,,Clear,0,2012-02-26 16:53:00
10:53 AM,39.0,1.0,20,30.08,10.0,NNW,13.8,18.4,N/A,,Clear,330,2012-02-26 17:53:00
11:53 AM,43.0,3.0,19,30.07,10.0,Variable,6.9,-,N/A,,Clear,0,2012-02-26 18:53:00
12:53 PM,44.1,-5.1,13,30.04,10.0,WNW,9.2,-,N/A,,Clear,290,2012-02-26 19:53:00
1:53 PM,43.0,-9.0,11,30.04,10.0,North,9.2,17.3,N/A,,Clear,350,2012-02-26 20:53:00
2:53 PM,42.1,-11.0,10,30.01,10.0,NNW,5.8,-,N/A,,Clear,330,2012-02-26 21:53:00
3:53 PM,44.1,-8.0,11,30.02,10.0,Variable,5.8,-,N/A,,Clear,0,2012-02-26 22:53:00
4:53 PM,42.1,-8.0,12,30.03,10.0,WNW,5.8,-,N/A,,Clear,300,2012-02-26 23:53:00
5:53 PM,39.0,-5.1,15,30.07,10.0,NNE,3.5,-,N/A,,Clear,20,2012-02-27 00:53:00
6:53 PM,28.9,7.0,40,30.11,10.0,Calm,Calm,-,N/A,,Clear,0,2012-02-27 01:53:00
7:53 PM,24.1,12.0,60,30.12,10.0,NE,6.9,-,N/A,,Clear,50,2012-02-27 02:53:00
8:53 PM,21.9,10.9,63,30.10,10.0,ENE,8.1,-,N/A,,Clear,70,2012-02-27 03:53:00
9:53 PM,19.9,12.9,74,30.10,10.0,Calm,Calm,-,N/A,,Mostly Cloudy,0,2012-02-27 04:53:00
10:53 PM,19.0,12.0,74,30.09,10.0,East,3.5,-,N/A,,Clear,80,2012-02-27 05:53:00
11:53 PM,19.0,12.0,74,30.06,10.0,Calm,Calm,-,N/A,,Clear,0,2012-02-27 06:53:00